Home > Weather > Ulaanbaatar > Past weeks

Flag for Mongolia Past Weather in Ulaanbaatar, Mongolia — Yesterday and Last 2 Weeks

Now
64 °F

Sunny.


Feels Like: 64 °F
Forecast: 53 / 80 °F
Wind: 1 mph from North

Location: Ulan-Bator

Current Time: May 31, 2016 at 11:15:19 AM

Latest Report: May 31, 2016 at 10:30 AM


Visibility: 10 mi

Pressure: 30.04 "Hg (25.79 "Hg at 1298m altitude)

Humidity: 34%

Dew Point: 36 °F

Location of UlaanbaatarLocation

Past Weather in Ulaanbaatar — Graph

°F

Ulaanbaatar Temperature Yesterday

Maximum temperature yesterday: 75 °F (at 2:30 PM)
Minimum temperature yesterday: 41 °F (at 3:00 AM)
Average temperature yesterday: 60 °F

High & Low Weather Summary for the Past Weeks

 TemperatureHumidityPressure
High82 °F (May 18, 12:30 PM)86% (May 20, 5:30 AM)30.48 "Hg (May 20, 5:30 AM)
Low25 °F (May 26, 5:00 AM)9% (May 27, 5:00 PM)29.42 "Hg (May 27, 5:30 PM)
Average53 °F36%29.86 "Hg
* Reported May 16 10:00 AM — May 31 10:00 AM, Ulaanbaatar, Weather by CustomWeather, © 2016

Note: Actual official high and low records may vary slightly from our data, if they occured in-between our weather recording intervals... More about our weather records

Advertising

Ulaanbaatar Weather History for the Previous 24 Hours

Scroll right to see more
 ConditionsComfort  
Time TempWeatherWind HumidityBarometerVisibility
10:00 AM
Tue, May 31
61 °FSunny.No wind39%30.04 "Hg10 mi
9:30 AM57 °FSunny.No wind44%30.01 "Hg10 mi
9:00 AM55 °FSunny.1 mph47%30.01 "Hg10 mi
8:30 AM52 °FSunny.No wind54%30.01 "Hg10 mi
8:00 AM50 °FSunny.No wind54%30.01 "Hg10 mi
7:30 AM46 °FClear.1 mph62%30.01 "Hg10 mi
7:00 AM43 °FClear.1 mph71%30.01 "Hg10 mi
6:30 AM41 °FClear.No wind66%30.01 "Hg10 mi
6:00 AM39 °FClear.1 mph75%29.98 "Hg10 mi
5:30 AM37 °FClear.1 mph70%29.98 "Hg10 mi
5:00 AM43 °FClear.No wind66%29.98 "Hg10 mi
4:30 AM43 °FClear.3 mph61%29.98 "Hg10 mi
4:00 AM41 °FClear.3 mph66%29.95 "Hg10 mi
3:00 AM43 °FClear.3 mph61%29.92 "Hg10 mi
2:00 AM48 °FClear.3 mph54%29.92 "Hg10 mi
1:30 AM46 °FClear.No wind57%29.92 "Hg10 mi
1:00 AM46 °FClear.1 mph53%29.92 "Hg10 mi
12:30 AM52 °FClear.1 mph47%29.89 "Hg10 mi
12:00 AM52 °FClear.1 mph47%29.89 "Hg10 mi
11:30 PM
Mon, May 30
57 °FPassing clouds.No wind39%29.89 "HgN/A
11:00 PM59 °FPassing clouds.3 mph39%29.86 "HgN/A
10:30 PM57 °FPassing clouds.3 mph41%29.86 "HgN/A
10:00 PM61 °FPassing clouds.6 mph39%29.86 "HgN/A
9:30 PM63 °FPassing clouds.8 mph34%29.83 "HgN/A
9:00 PM64 °FPassing clouds.13 mph34%29.83 "HgN/A
8:00 PM68 °FScattered clouds.20 mph30%29.80 "HgN/A
7:30 PM68 °FScattered clouds.20 mph30%29.77 "HgN/A
7:00 PM68 °FScattered clouds.20 mph30%29.77 "HgN/A
6:30 PM72 °FSprinkles. Scattered clouds.8 mph16%29.74 "HgN/A
6:00 PM73 °FScattered clouds.3 mph15%29.71 "HgN/A
5:30 PM73 °FScattered clouds.6 mph14%29.71 "HgN/A
5:00 PM73 °FScattered clouds.6 mph15%29.71 "HgN/A
4:30 PM73 °FScattered clouds.8 mph16%29.71 "HgN/A
4:00 PM73 °FScattered clouds.8 mph12%29.71 "HgN/A
3:30 PM75 °FScattered clouds.8 mph11%29.71 "HgN/A
3:00 PM75 °FScattered clouds.3 mph11%29.71 "HgN/A
2:30 PM75 °FScattered clouds.8 mph10%29.71 "HgN/A
2:00 PM73 °FScattered clouds.8 mph11%29.71 "HgN/A
1:30 PM73 °FPassing clouds.10 mph9%29.71 "HgN/A
1:00 PM72 °FPassing clouds.8 mph14%29.71 "HgN/A
12:30 PM70 °FPassing clouds.8 mph12%29.71 "HgN/A
12:00 PM70 °FPassing clouds.8 mph17%29.71 "HgN/A
11:30 AM66 °FScattered clouds.10 mph22%29.71 "HgN/A
11:00 AM66 °FScattered clouds.8 mph22%29.74 "HgN/A
Weather by CustomWeather, © 2016

See weather overviewHow to use our weather pages